Tracking 20037 objects as of 21-Nov-2019
Live streaming from Space Station
objects crossing your sky now

EUTELSAT 1-F2 (ECS 2)

Track EUTELSAT 1-F2 (ECS 2) now!
EUTELSAT 1-F2 (ECS 2) is classified as:


NORAD ID: 15158
Int'l Code: 1984-081A
Perigee: 36,186.5 km
Apogee: 36,239.6 km
Inclination: 15.0 °
Period: 1,457.6 minutes
Semi major axis: 42584 km
RCS: 5.0119 m2 (large)
Launch date: August 4, 1984
Source: European Telecommunications Satellite Organization (EUTE)
Launch site: FRENCH GUIANA (FRGUI)
aabbcc
Your satellite tracking list
Your tracking list is empty




NASA's NSSDC Master Catalog

Two Line Element Set (TLE):
1 15158U 84081A   19324.13373196  .00000009  00000-0  00000+0 0  9991
2 15158  15.0323 351.8057 0006235 173.9396 195.0807  0.98794533 93582
Source of the keplerian elements: AFSPC